Temp
-1 -1 -1 -1 -2 -2 -1 -3 -4 -5 -6 -6 -8 -10 -11 -11 -11 -12 -12 -13 -13 -14 -14 -14 -14 -13 -13 -13 -13 -13 -12 -12 -12 -12 -11 -12 -11 -12 -12 -10 -7 -8 -11 -15
-2 -2 -2 -1 -2 -3 -3 -3 -4 -6 -7 -8 -8 -9 -11 -11 -11 -12 -12 -12 -14 -14 -14 -14 -14 -13 -12 -12 -13 -13 -12 -12 -12 -10 -11 -11 -13 -14 -13 -10 -9 -12 -10 -16
-2 -2 -2 -2 -2 -4 -4 -5 -6 -6 -7 -8 -9 -9 -10 -11 -11 -12 -12 -12 -13 -14 -13 -13 -13 -13 -12 -12 -12 -13 -12 -12 -12 -14 -16 -16 -17 -14 -12 -9 -10 -14 -16 -18
-2 -3 -3 -3 -3 -4 -5 -7 -8 -8 -8 -8 -9 -10 -10 -11 -12 -12 -12 -12 -12 -13 -13 -13 -13 -12 -12 -12 -12 -12 -13 -13 -13 -13 -14 -14 -15 -16 -15 -14 -14 -14 -16 -15
-4 -4 -4 -4 -4 -5 -7 -8 -9 -9 -7 -9 -9 -10 -10 -11 -11 -12 -13 -12 -11 -12 -13 -14 -13 -13 -12 -12 -12 -12 -13 -13 -13 -13 -13 -14 -13 -16 -16 -15 -16 -17 -16 -15
-4 -5 -3 -5 -6 -6 -7 -8 -9 -9 -8 -9 -10 -10 -10 -11 -12 -11 -13 -12 -12 -11 -12 -11 -12 -12 -12 -12 -13 -13 -12 -12 -13 -12 -13 -14 -14 -17 -17 -17 -17 -17 -16 -16
-3 -3 -3 -5 -7 -6 -7 -8 -8 -9 -8 -9 -10 -10 -10 -10 -11 -12 -12 -13 -12 -11 -11 -11 -12 -12 -12 -12 -13 -13 -12 -12 -13 -13 -13 -18 -16 -17 -17 -17 -17 -17 -17 -16
-3 -3 -4 -4 -4 -7 -7 -8 -9 -9 -8 -8 -9 -10 -10 -10 -10 -11 -12 -12 -12 -12 -11 -11 -11 -12 -12 -12 -13 -13 -13 -12 -13 -13 -17 -17 -17 -16 -17 -17 -17 -17 -16 -15
-3 -3 -3 -4 -4 -5 -6 -8 -8 -9 -8 -8 -9 -9 -10 -10 -11 -11 -11 -12 -12 -12 -12 -13 -14 -14 -14 -13 -13 -13 -14 -13 -13 -14 -17 -20 -18 -17 -16 -17 -17 -17 -16 -15
-3 -3 -3 -4 -5 -5 -6 -6 -7 -8 -8 -8 -9 -10 -11 -11 -12 -13 -12 -12 -12 -12 -13 -13 -14 -14 -14 -14 -14 -14 -14 -14 -14 -15 -16 -17 -17 -18 -17 -17 -17 -17 -16 -16
-3 -3 -4 -4 -5 -5 -5 -6 -7 -7 -7 -8 -9 -10 -10 -11 -13 -14 -13 -13 -13 -14 -14 -14 -15 -15 -15 -15 -15 -15 -16 -15 -15 -15 -16 -19 -17 -17 -17 -18 -18 -17 -17 -16
-3 -3 -4 -5 -5 -5 -5 -6 -7 -7 -8 -9 -9 -10 -11 -12 -13 -13 -13 -14 -15 -14 -15 -15 -16 -16 -15 -15 -16 -15 -16 -16 -17 -16 -16 -17 -18 -18 -19 -19 -18 -17 -17 -17
-4 -4 -4 -5 -5 -5 -6 -6 -7 -7 -8 -9 -10 -11 -12 -12 -13 -14 -14 -14 -15 -15 -16 -16 -16 -16 -16 -16 -16 -17 -17 -18 -18 -19 -18 -18 -19 -19 -19 -19 -19 -19 -18 -17
-4 -4 -4 -5 -5 -6 -6 -6 -7 -8 -9 -10 -10 -11 -12 -13 -13 -13 -14 -15 -15 -15 -16 -16 -16 -16 -17 -17 -17 -18 -20 -20 -20 -21 -21 -21 -20 -20 -20 -20 -20 -20 -19 -19
-4 -4 -4 -5 -5 -5 -6 -6 -7 -9 -10 -10 -10 -11 -12 -13 -13 -14 -15 -15 -15 -16 -15 -16 -16 -17 -18 -18 -19 -21 -22 -22 -22 -22 -22 -23 -22 -21 -21 -21 -20 -20 -19 -20
-4 -4 -4 -5 -5 -5 -6 -7 -8 -9 -10 -11 -11 -12 -12 -14 -15 -15 -16 -16 -16 -17 -17 -17 -18 -18 -19 -20 -22 -24 -25 -24 -24 -23 -23 -23 -23 -22 -22 -21 -21 -21 -20 -20
-4 -4 -5 -5 -5 -6 -7 -8 -9 -10 -11 -12 -13 -13 -14 -14 -15 -16 -16 -16 -16 -17 -18 -19 -19 -20 -20 -21 -24 -25 -25 -25 -24 -24 -24 -24 -23 -23 -22 -22 -21 -21 -21 -20
-5 -5 -5 -5 -5 -6 -8 -8 -9 -11 -11 -12 -13 -14 -15 -16 -16 -16 -16 -17 -18 -19 -20 -20 -21 -22 -22 -25 -26 -26 -25 -25 -25 -25 -24 -24 -24 -23 -23 -22 -22 -22 -21 -21
-5 -5 -6 -6 -6 -8 -8 -10 -11 -12 -12 -13 -14 -15 -16 -17 -17 -18 -19 -20 -20 -21 -21 -21 -22 -24 -25 -27 -27 -26 -26 -25 -25 -25 -25 -24 -24 -24 -23 -23 -23 -22 -22 -22
-5 -6 -6 -7 -8 -9 -10 -11 -12 -13 -13 -14 -16 -18 -18 -18 -20 -20 -21 -21 -21 -21 -22 -23 -24 -28 -28 -28 -27 -26 -26 -26 -25 -25 -25 -25 -24 -24 -24 -23 -23 -22 -22 -22
-6 -7 -7 -7 -9 -10 -11 -12 -12 -13 -14 -16 -17 -18 -19 -20 -21 -21 -22 -21 -22 -22 -24 -24 -26 -28 -28 -27 -27 -27 -26 -26 -26 -26 -25 -25 -25 -24 -24 -24 -23 -23 -23 -22
-7 -8 -8 -9 -10 -12 -12 -12 -14 -14 -16 -17 -18 -19 -20 -21 -22 -22 -23 -23 -23 -23 -24 -24 -28 -28 -28 -27 -27 -27 -26 -26 -26 -26 -26 -25 -25 -25 -25 -24 -24 -24 -23 -23
-7 -9 -9 -10 -11 -12 -12 -13 -15 -17 -18 -19 -19 -20 -22 -23 -24 -23 -23 -23 -24 -24 -24 -27 -29 -28 -28 -28 -27 -27 -27 -27 -26 -26 -26 -26 -26 -26 -25 -25 -24 -24 -24 -24
-9 -10 -10 -10 -12 -13 -14 -16 -17 -18 -19 -20 -21 -22 -22 -24 -24 -24 -24 -24 -24 -26 -27 -29 -28 -28 -28 -28 -28 -28 -28 -27 -27 -27 -27 -26 -26 -26 -26 -25 -25 -25 -24 -24
-10 -10 -10 -12 -13 -14 -15 -17 -18 -20 -20 -20 -21 -23 -24 -24 -25 -25 -25 -25 -26 -27 -28 -28 -28 -28 -28 -28 -28 -28 -28 -28 -28 -28 -27 -27 -27 -26 -26 -26 -26 -25 -25 -25
-12 -11 -11 -12 -14 -15 -17 -18 -19 -20 -20 -21 -22 -24 -25 -25 -25 -25 -25 -26 -27 -28 -28 -29 -29 -29 -29 -29 -29 -29 -29 -29 -28 -28 -28 -28 -27 -27 -27 -27 -26 -26 -25 -25
-11 -11 -12 -14 -15 -16 -18 -19 -19 -20 -21 -22 -23 -24 -24 -25 -26 -26 -26 -27 -28 -29 -29 -30 -30 -30 -30 -30 -29 -29 -29 -29 -28 -28 -28 -28 -28 -27 -27 -27 -27 -26 -26 -26
Height
3074 3065 3056 3048 3039 3035 3027 3017 3009 2999 2993 2988 2978 2977 2975 2974 2969 2967 2964 2961 2956 2953 2947 2937 2934 2929 2925 2919 2912 2900 2896 2892 2884 2882 2880 2877 2873 2873 2870 2872 2870 2868 2876 2896
3072 3064 3055 3047 3038 3027 3019 3013 3009 3001 2995 2983 2980 2979 2976 2972 2968 2964 2960 2959 2957 2952 2947 2942 2934 2930 2926 2921 2914 2907 2901 2896 2888 2881 2885 2880 2875 2875 2871 2871 2871 2874 2876 2892
3070 3063 3054 3045 3036 3027 3020 3012 3005 3000 2995 2990 2984 2977 2974 2969 2968 2964 2961 2957 2955 2950 2944 2942 2934 2930 2924 2922 2917 2912 2906 2903 2900 2901 2903 2895 2885 2877 2870 2868 2872 2877 2885 2886
3068 3060 3053 3042 3033 3027 3020 3013 3007 3004 2996 2989 2985 2979 2974 2968 2964 2964 2960 2956 2954 2950 2944 2938 2934 2930 2926 2923 2918 2913 2908 2906 2903 2902 2900 2897 2896 2889 2881 2871 2876 2880 2891 2890
3066 3058 3049 3041 3032 3025 3021 3017 3011 3002 2997 2990 2985 2979 2973 2967 2964 2962 2959 2956 2953 2950 2945 2942 2934 2931 2927 2923 2919 2914 2910 2907 2904 2902 2900 2900 2898 2896 2893 2889 2888 2887 2891 2893
3064 3057 3049 3040 3032 3025 3019 3013 3008 3000 2996 2989 2983 2980 2973 2968 2964 2962 2958 2953 2948 2947 2944 2939 2936 2932 2929 2925 2921 2915 2910 2907 2905 2902 2899 2897 2895 2894 2895 2895 2897 2897 2896 2898
3062 3054 3047 3039 3031 3024 3019 3013 3007 2998 2991 2988 2983 2978 2975 2969 2965 2960 2958 2954 2951 2947 2942 2937 2934 2932 2929 2926 2923 2919 2912 2907 2904 2902 2901 2909 2908 2903 2901 2901 2901 2900 2901 2899
3059 3052 3045 3038 3031 3023 3016 3013 3006 2997 2989 2986 2981 2975 2969 2968 2963 2960 2956 2952 2948 2944 2940 2936 2932 2931 2929 2926 2923 2920 2916 2911 2905 2903 2905 2910 2908 2907 2905 2903 2904 2901 2898 2898
3056 3049 3042 3035 3029 3021 3015 3010 3002 2996 2989 2983 2977 2972 2968 2962 2959 2957 2953 2951 2947 2944 2939 2936 2935 2933 2932 2926 2923 2921 2918 2914 2910 2906 2905 2910 2911 2908 2904 2903 2904 2902 2899 2896
3053 3046 3039 3032 3025 3018 3011 3005 2999 2991 2984 2979 2973 2968 2965 2961 2957 2954 2951 2947 2945 2942 2939 2936 2935 2933 2932 2928 2924 2918 2916 2913 2911 2908 2907 2907 2907 2907 2905 2905 2911 2903 2901 2899
3049 3042 3035 3027 3020 3013 3007 3001 2995 2990 2980 2976 2970 2965 2961 2957 2956 2951 2949 2947 2942 2939 2937 2936 2935 2932 2931 2927 2925 2921 2919 2916 2914 2912 2909 2910 2908 2906 2907 2907 2904 2903 2901 2899
3045 3037 3029 3022 3014 3007 3002 2996 2988 2982 2977 2973 2966 2961 2957 2954 2951 2949 2946 2946 2943 2939 2937 2935 2932 2930 2928 2925 2923 2920 2918 2917 2916 2916 2912 2909 2907 2906 2904 2903 2902 2899 2898 2896
3040 3033 3025 3017 3010 3003 2997 2989 2984 2976 2970 2967 2961 2958 2954 2949 2946 2945 2945 2942 2940 2937 2934 2932 2929 2926 2923 2921 2918 2916 2914 2913 2912 2912 2909 2908 2906 2904 2902 2900 2898 2898 2896 2893
3034 3028 3021 3013 3006 2999 2992 2985 2978 2972 2966 2960 2958 2953 2949 2946 2943 2941 2940 2938 2937 2934 2932 2928 2924 2922 2918 2915 2913 2912 2911 2910 2908 2907 2905 2904 2903 2901 2900 2898 2895 2893 2891 2890
3027 3021 3015 3008 3000 2993 2987 2980 2973 2966 2965 2958 2952 2948 2946 2944 2941 2938 2936 2935 2934 2930 2927 2924 2920 2915 2913 2908 2907 2906 2905 2905 2906 2904 2903 2901 2901 2898 2897 2895 2893 2891 2890 2889
3020 3014 3008 3001 2993 2985 2977 2971 2968 2963 2957 2952 2948 2945 2943 2941 2939 2936 2933 2931 2928 2925 2920 2916 2911 2908 2908 2903 2902 2905 2904 2903 2902 2900 2899 2898 2896 2895 2893 2892 2890 2888 2886 2884
3013 3007 3001 2993 2986 2979 2974 2969 2962 2955 2952 2950 2945 2942 2940 2939 2936 2933 2930 2925 2921 2916 2912 2906 2905 2902 2903 2899 2900 2902 2901 2900 2898 2897 2896 2895 2892 2891 2890 2889 2887 2885 2884 2881
3006 3000 2993 2987 2980 2972 2966 2960 2956 2952 2949 2947 2945 2941 2938 2934 2931 2927 2923 2918 2911 2906 2903 2901 2899 2899 2898 2898 2900 2899 2898 2897 2896 2895 2893 2891 2889 2888 2886 2885 2884 2882 2881 2879
2999 2993 2986 2981 2974 2967 2961 2955 2951 2949 2952 2945 2941 2938 2935 2929 2925 2919 2912 2906 2903 2900 2898 2898 2899 2897 2898 2899 2897 2897 2895 2893 2892 2891 2890 2888 2886 2885 2883 2882 2881 2879 2878 2877
2991 2984 2979 2971 2968 2960 2957 2950 2949 2946 2946 2941 2938 2934 2930 2925 2916 2910 2907 2901 2899 2898 2897 2896 2895 2898 2901 2899 2896 2894 2892 2891 2889 2888 2887 2885 2884 2882 2880 2878 2877 2876 2874 2873
2984 2977 2971 2965 2960 2957 2953 2949 2948 2946 2943 2939 2935 2930 2922 2916 2912 2908 2906 2902 2899 2897 2898 2896 2896 2898 2898 2897 2894 2892 2890 2888 2886 2884 2883 2881 2879 2878 2877 2876 2874 2872 2871 2870
2977 2974 2966 2959 2955 2955 2954 2950 2948 2945 2941 2937 2931 2924 2916 2911 2907 2904 2903 2901 2900 2897 2896 2895 2894 2897 2896 2894 2892 2890 2887 2885 2883 2881 2880 2878 2876 2875 2873 2872 2871 2869 2868 2867
2969 2966 2961 2958 2954 2954 2951 2949 2945 2943 2938 2930 2923 2918 2912 2906 2905 2903 2902 2900 2900 2898 2894 2893 2894 2894 2893 2891 2889 2887 2884 2881 2879 2877 2876 2874 2872 2871 2870 2869 2867 2866 2865 2863
2963 2962 2959 2958 2952 2951 2949 2946 2941 2937 2929 2924 2919 2914 2911 2905 2903 2903 2899 2899 2897 2893 2893 2893 2893 2891 2889 2887 2884 2882 2880 2878 2875 2873 2872 2870 2868 2867 2866 2865 2864 2862 2861 2860
2959 2960 2956 2954 2952 2948 2944 2940 2935 2930 2925 2919 2914 2910 2908 2904 2902 2902 2899 2898 2895 2893 2893 2892 2890 2887 2884 2882 2880 2878 2875 2873 2871 2869 2868 2866 2864 2863 2862 2861 2860 2858 2857 2856
2956 2955 2952 2950 2947 2944 2940 2936 2932 2927 2922 2916 2911 2908 2906 2905 2902 2901 2898 2897 2894 2892 2890 2887 2884 2881 2879 2877 2874 2872 2870 2868 2867 2865 2863 2862 2860 2859 2858 2857 2856 2855 2854 2853
2953 2951 2948 2946 2942 2940 2937 2933 2928 2922 2918 2913 2910 2908 2906 2905 2901 2899 2896 2894 2891 2887 2884 2880 2876 2873 2871 2869 2867 2865 2863 2862 2860 2860 2858 2857 2856 2855 2854 2853 2853 2851 2850 2849
Wind_Speed
47 46 45 44 47 45 45 44 39 34 46 39 37 25 21 17 21 12 16 18 16 21 32 21 15 22 20 27 35 38 21 8 16 17 7 23 12 18 8 4 5 6 6 4
46 46 47 48 47 48 49 47 39 36 43 40 37 30 20 18 20 15 17 16 18 27 29 13 17 25 19 22 32 31 20 13 11 5 4 25 20 28 9 1 1 10 3 5
44 46 47 48 47 47 46 48 43 41 42 38 34 34 27 22 21 14 18 16 25 29 29 25 13 29 25 18 27 26 9 15 16 7 8 15 23 30 15 6 7 6 9 12
46 45 47 50 49 47 46 46 46 44 43 40 34 29 28 25 26 18 20 18 24 26 25 27 20 23 22 18 25 29 20 4 6 7 7 19 30 29 29 25 10 7 11 11
46 46 46 49 48 47 43 43 44 49 45 42 36 31 30 27 25 17 19 21 25 22 24 26 28 18 16 19 24 30 26 10 6 9 8 9 14 27 27 22 24 21 14 12
44 44 46 47 46 46 42 44 46 47 45 44 37 30 29 26 24 14 15 19 25 22 22 18 11 11 11 15 21 30 27 20 5 2 5 8 4 28 23 21 26 16 15 13
41 42 44 44 42 43 37 39 44 44 45 43 29 32 27 23 20 21 11 15 20 21 21 16 6 10 10 9 15 23 26 24 8 3 1 4 9 13 15 9 12 19 16 14
39 40 43 43 42 37 37 38 41 39 44 39 31 34 28 22 16 12 10 12 16 17 19 14 7 8 10 6 13 15 23 21 6 5 7 5 8 13 13 8 5 19 18 15
38 39 41 42 40 38 35 33 35 35 40 38 34 29 27 23 19 9 11 10 13 15 17 13 7 4 15 7 12 14 20 13 11 4 3 3 9 8 9 4 3 17 17 16
37 40 41 42 40 40 38 36 35 37 39 36 28 25 26 22 21 19 16 15 11 13 15 11 8 3 16 8 13 20 21 20 16 10 3 1 12 9 8 4 6 15 15 15
37 39 40 42 40 39 37 38 36 35 38 27 24 24 18 22 17 18 18 17 8 9 10 6 8 6 13 9 20 17 11 9 6 8 3 2 14 11 6 7 11 13 14 14
36 38 41 42 39 38 38 38 38 36 32 24 27 15 22 21 17 18 18 16 14 8 8 9 7 17 14 20 11 16 8 7 7 4 6 19 16 11 12 12 13 12 14 15
36 39 42 40 38 37 38 39 37 35 30 27 15 20 22 21 19 17 14 18 15 14 13 15 15 17 16 17 13 15 11 8 6 9 12 13 13 14 15 17 18 15 15 15
36 40 41 40 37 38 39 38 33 29 29 21 22 23 19 12 14 15 14 16 16 20 17 23 26 25 19 15 18 18 14 11 8 9 12 12 14 16 14 17 18 18 17 17
37 40 41 40 38 40 39 36 31 29 25 24 20 16 10 15 13 13 9 7 13 20 26 28 28 23 19 19 15 3 8 9 8 7 12 15 16 18 18 16 16 17 16 15
37 39 41 38 39 39 38 35 32 30 24 21 14 11 15 10 12 9 9 18 26 26 26 28 22 23 17 9 5 2 5 8 10 13 13 15 16 14 15 15 15 15 16 15
37 40 40 38 39 38 31 34 29 23 18 17 10 7 5 16 16 15 22 31 38 33 29 19 21 19 12 7 3 7 6 7 10 12 12 12 14 14 13 14 14 14 14 15
39 40 41 39 40 34 34 31 24 15 13 10 7 8 16 21 21 31 42 38 33 29 20 17 13 7 3 3 3 6 7 7 8 10 11 12 12 12 12 12 12 12 12 13
38 39 39 40 36 35 32 26 16 14 11 8 9 19 18 15 43 42 36 27 22 13 12 10 7 2 4 8 8 8 8 9 8 9 10 11 12 13 13 12 12 12 12 12
36 37 37 36 37 33 25 14 10 9 12 16 12 16 36 45 42 36 26 10 7 6 3 2 2 9 5 7 10 12 11 11 12 11 9 10 10 11 12 12 12 11 11 11
33 33 34 35 30 21 10 6 7 8 13 10 17 38 44 40 36 26 7 8 6 3 2 3 3 4 5 8 11 12 12 12 13 14 14 13 12 11 10 11 12 12 12 11
29 28 31 25 11 5 5 6 9 11 8 22 37 39 37 32 19 7 7 5 4 2 3 3 4 5 9 11 12 13 12 12 12 13 13 13 13 13 12 12 12 12 12 11
26 25 14 7 4 4 4 10 18 20 27 35 36 34 29 12 9 6 5 4 3 7 4 2 2 10 13 13 13 12 14 14 14 14 14 15 14 13 13 12 13 13 12 12
20 11 9 5 4 5 18 24 28 29 30 31 29 27 15 11 4 5 5 6 6 2 0 1 11 17 16 16 16 16 14 14 15 14 14 14 14 14 14 13 13 13 12 12
8 6 5 5 14 21 23 24 25 26 26 25 24 18 10 5 4 3 5 5 3 2 3 16 20 20 20 18 17 16 16 14 13 13 13 12 12 13 13 12 12 13 12 11
4 5 10 16 17 19 20 19 20 22 22 22 17 7 5 4 5 3 4 8 4 9 24 25 25 24 23 23 22 20 19 17 15 13 13 12 11 10 11 11 10 11 11 11
4 10 13 14 16 16 17 19 21 22 21 20 9 6 3 8 5 5 6 13 24 30 30 30 31 32 30 30 29 27 25 23 21 18 16 15 13 12 11 11 9 10 11 11
Wind_Direction
354 356 357 1 358 1 4 6 12 6 5 8 19 20 15 5 7 7 356 353 346 343 344 329 337 336 346 357 1 354 354 312 309 330 2 10 37 17 12 342 358 67 72 106
351 354 356 358 358 1 2 2 12 9 7 12 10 9 11 9 5 4 359 355 348 346 348 332 328 344 5 360 7 359 3 343 320 352 23 6 20 11 348 306 73 31 74 145
352 355 355 355 357 0 2 1 3 4 8 8 3 0 359 360 6 12 359 350 351 346 346 348 317 340 351 1 12 12 13 58 61 105 77 32 23 22 22 127 64 68 60 136
350 355 354 353 355 359 359 1 358 358 354 2 1 355 353 355 353 6 356 354 355 350 338 343 334 345 351 9 12 16 14 346 335 357 23 31 40 36 43 66 71 82 122 103
350 353 352 353 352 355 354 358 350 346 354 354 355 352 349 349 350 350 354 346 353 354 345 335 329 336 359 0 9 16 10 351 305 298 291 306 3 39 44 61 78 91 85 73
348 351 351 349 351 351 351 351 348 343 347 347 345 348 344 343 336 341 346 337 338 351 346 336 323 341 342 2 9 7 2 1 347 204 331 302 335 9 19 44 54 58 45 20
347 350 349 348 348 345 347 346 337 339 337 340 338 339 339 339 331 321 341 331 338 348 348 336 308 339 318 340 2 7 2 360 336 307 78 47 345 355 1 13 37 38 33 25
348 347 346 347 347 345 342 338 332 331 327 338 334 333 333 335 328 318 335 322 333 343 351 0 352 341 350 327 345 347 4 5 333 359 65 124 14 346 349 347 344 11 12 17
345 344 344 343 344 343 339 337 333 329 329 336 333 326 328 329 334 312 323 328 329 345 359 10 359 348 343 321 328 336 354 359 22 357 58 152 25 8 352 4 356 351 358 359
343 343 341 340 341 341 339 338 337 331 328 335 328 324 325 324 323 316 323 329 324 338 354 13 356 318 348 331 323 326 342 353 14 13 38 81 2 1 8 349 323 343 348 352
340 340 338 339 340 338 336 335 334 329 327 335 325 320 316 317 315 305 305 316 313 322 349 359 354 311 332 306 319 309 321 331 0 345 316 312 336 331 352 337 328 330 337 341
338 337 336 338 337 335 334 333 332 328 327 327 321 316 316 311 299 298 297 299 313 294 319 321 320 315 309 308 300 301 287 283 299 292 306 304 311 308 316 315 327 330 331 331
335 336 336 335 335 333 331 330 329 326 326 330 321 318 314 305 300 294 284 288 300 293 302 306 315 300 299 294 287 274 277 272 269 288 288 293 291 293 306 314 320 325 325 325
334 336 336 336 333 331 330 329 328 324 324 325 322 320 315 305 304 296 291 278 285 281 295 312 310 302 293 271 272 262 281 275 277 278 277 282 279 292 300 306 310 316 323 321
333 335 335 334 331 330 329 327 326 323 322 314 314 313 312 303 306 309 301 314 289 312 313 308 304 290 270 264 253 236 298 297 298 267 282 289 284 288 294 300 300 301 306 311
330 330 331 332 330 330 328 327 325 323 320 318 317 295 311 305 304 285 300 320 322 321 308 299 283 270 264 248 181 307 296 300 295 290 291 292 293 291 291 296 300 302 305 307
327 327 330 330 330 330 326 324 321 318 317 314 305 301 306 309 292 285 302 312 319 317 311 281 267 264 251 218 170 320 312 302 295 292 294 292 292 292 290 292 295 300 303 308
326 326 329 329 329 327 324 325 324 321 317 314 291 291 310 307 303 312 314 317 314 305 288 268 260 251 238 92 2 330 317 301 291 292 299 302 302 301 299 299 298 301 303 305
324 326 326 327 328 324 325 325 322 323 313 300 283 306 320 308 319 324 329 320 305 294 259 261 251 162 46 344 328 317 318 320 311 311 304 300 299 300 299 298 298 299 300 301
321 325 327 326 322 320 319 312 320 313 309 299 298 311 325 324 327 331 329 301 287 290 287 239 136 84 44 339 326 318 314 311 310 310 297 285 284 289 294 295 297 299 299 303
319 324 324 319 316 315 312 308 327 317 305 302 310 320 322 324 329 330 316 299 292 308 249 280 141 91 352 337 327 318 315 314 311 311 313 316 315 311 305 302 300 300 302 304
319 322 319 310 310 299 295 313 333 323 304 306 315 324 328 329 331 327 315 299 305 291 267 235 134 346 337 327 323 318 314 311 308 305 305 306 307 309 309 307 304 302 302 303
318 329 304 302 296 288 286 326 316 320 315 320 327 331 330 335 340 300 313 290 307 300 249 146 162 337 329 321 318 316 315 314 310 305 302 301 303 305 305 304 302 300 298 299
328 318 285 279 298 307 318 322 323 326 328 329 328 325 327 329 317 291 279 279 300 257 209 257 319 320 320 316 314 314 311 307 305 305 300 295 293 295 298 300 298 295 293 293
337 288 272 269 309 317 324 330 333 333 332 335 334 325 325 326 302 286 288 291 309 300 268 317 316 311 309 308 307 305 304 303 302 301 301 301 299 294 290 290 290 292 292 291
290 244 292 312 320 329 336 337 338 340 345 346 346 325 317 299 303 293 280 305 283 302 309 308 305 302 302 301 301 301 299 297 296 298 299 298 298 297 294 291 286 284 288 291
250 290 312 322 330 339 345 348 350 354 357 3 356 325 315 308 307 294 286 296 301 305 303 301 300 299 297 294 293 291 289 288 288 288 287 289 293 294 295 296 299 295 293 293